パンスターズ彗星

C/2017 Y2 ( PanSTARRS )

English version
Home page
Updated on July 27, 2020

---------------------------------------------------------------------

・ プロフィール

発見日 2017年12月24日
発見光度 22.1等
発見者 Pan-STARRS 1 telescope (Haleakala)

・ 写真集

・ 軌道要素

Epoch 2020 Nov. 7.0 TT = JDT 2459160.5
T 2020 Nov. 4.62020 TT                                  Rudenko
q   4.6320708            (2000.0)            P               Q
z  -0.0002130      Peri.  147.87111     -0.04269260     -0.69707063
 +/-0.0000011      Node    65.99136     -0.99886520     +0.01464310
e   1.0009865      Incl.  128.41627     +0.02111071     -0.71685292
From 295 observations 2017 Dec. 24-2020 June 21, mean residual 0".4.

・ 星図

・ 光度変化

        m1 = 5.5 + 5 logΔ + 12.0 log r

---------------------------------------------------------------------

軌道要素はM.P.E.C. 2020-M114に掲載されたものです。
光度グラフはComet for Windowsで作成したものです。

---------------------------------------------------------------------

Copyright(C) Seiichi Yoshida (comet@aerith.net). All rights reserved.